Showing default

ANTELSAT, 40034

Orbit data source: Space-Track

ANTELSAT, 40034 is an Uruguayan payload satellite in SSO that was launched on Thu, 19 Jun 2014 UTC via a DNEPR launch vehicle from the Orenburg, Russia (OREN). Payload-class satellites include a variety of spacecraft equipped with specific instruments for various scientific and technological missions. These include communications satellites like Starlink; space stations such as the ISS; scientific satellites like the Hubble; Earth observation satellites from companies like Planet Labs, Umbra, and HawkEye 360; GPS; miniature CubeSats for education and research; and military/defense satellites.

Loading next visibility...
Identifier
40034, 2014-033AA
Orbit
SSO
Country
Flag of UYUY / URY
Related business
Manufacturer
UdelaR FING
Mission
Non-operational Civil Tech/Com
Bus & Motor
CUBESAT 2U, Unknown motor
Mass
~2 kg wet, ~2 kg dry
Launch date (UTC)
2014-06-19 (12 years ago)
Launch vehicle
DNEPR
Launch site
Orenburg, Russia (OREN)
Object type
Payload
Rocket body
Debris
Shape & HBR
Box + 1 Ant, 0.1 m
Radar Cross Section
0.040 m², Medium (>0.1 m² and < 1m²)

Expand to show TLE details & history
Last TLE update: 2 days ago

TLE from 2 days ago
0 ANTELSAT
1 40034U 14033AA  26171.35555153  .00002382  00000-0  24280-3 0  9995
2 40034  97.7784 327.0821 0044124  47.4977 312.9955 14.90924840646282
Epoch: 2026-06-20T08:31Z
TLE epoch observation values (Epoch: 2026-06-20T08:31:59.652Z)
Latitude
-0.00006°
Longitude
-69.4878°
Altitude
577.177 km
Speed
7.583 km/s
True Right ascension
21h 48m 19s
True Declination
0° 00' 00"
Sunlit
Object was in full shadow at epoch
Visualization orbit readout
Latitude
Unknown
Longitude
Unknown
Altitude
Unknown
Speed
Unknown
Apparent Right ascension
Unknown
Apparent Declination
Unknown
Sunlit
N/A
Visualization observer readout
Local Sidereal Time
21:40:38
Azimuth
Unknown
Elevation
Unknown
Doppler factor
Unknown
Orbital elements
Apogee altitude
622.827 km
Perigee altitude
561.316 km
Semi-major axis
6,970.208 km
Eccentricity
0.00441
Inclination
97.7784°
RAAN
327.0821°
Arg. of periapsis
47.4977°
True anomaly
312.62429°
Mean anomaly
312.9955°
Eccentric anomaly
312.81003°
Mean motion
3.72971 °/min
Orbital period
96.52 mins
BSTAR
0.0002428
Loading maneuver chart data...
Computing Atmospheric mass density...
Loading historical data...
Loading historical data...
Loading historical data...
Loading historical data...
Loading historical data...
Loading historical data...
Loading historical data...

Documentation

Showing up to 5 results
|